RH
82 84 74 68 63 58 51 41 34 28 29 31 34 37 40 42 46 53 65 74 76 72 71 63 58 58 55 42 43 43 49 48 43 39 34 41 42 42 48 56 65 56 55
83 81 73 64 61 57 46 34 30 28 30 33 35 38 40 42 48 56 62 66 69 70 68 67 64 66 65 55 43 35 54 53 52 53 39 33 38 38 48 57 67 53 54
82 77 70 61 54 48 39 32 30 28 32 36 37 38 40 43 47 54 59 59 62 64 67 70 71 75 74 59 58 40 41 58 48 63 71 57 39 35 45 60 61 57 55
82 78 67 54 50 42 35 33 28 28 32 35 37 40 41 43 46 52 55 60 62 64 65 68 69 75 79 75 68 58 40 48 59 77 65 53 41 33 41 60 53 53 50
84 80 63 52 48 38 35 31 30 31 33 35 36 39 42 43 44 48 52 52 53 57 58 64 68 67 72 77 77 80 63 48 57 71 53 51 55 37 40 43 46 49 61
86 73 55 47 43 36 33 35 37 39 42 41 41 41 43 47 46 48 55 48 51 52 53 55 57 62 65 60 60 69 76 62 51 62 67 51 58 53 61 65 52 45 44
76 59 47 45 40 35 36 40 41 44 47 49 49 48 51 53 53 59 58 57 59 63 64 61 54 44 40 42 45 46 63 70 55 71 65 56 41 48 50 48 49 50 54
65 51 44 41 39 36 39 41 44 49 50 54 54 54 58 60 60 60 59 61 59 55 48 45 40 37 36 36 43 50 52 70 67 56 64 54 52 53 46 43 44 46 46
60 50 43 41 38 38 41 43 48 52 54 51 49 50 51 51 52 53 51 47 44 43 43 40 38 38 39 39 45 57 63 68 60 40 54 56 57 49 37 38 39 40 37
59 49 44 41 43 46 44 46 50 51 49 48 49 50 51 47 43 42 43 44 44 40 39 36 34 29 27 29 41 44 59 63 67 47 50 49 60 51 34 36 35 33 38
57 49 45 46 49 53 50 47 45 45 45 49 50 47 60 64 61 47 41 42 43 42 39 38 34 37 40 34 27 45 58 75 80 77 58 44 48 44 39 40 36 33 33
52 51 51 50 52 54 54 44 45 46 49 55 60 47 80 54 61 55 42 38 36 38 39 42 59 43 49 47 40 49 65 43 65 72 69 56 49 51 41 41 39 39 35
51 53 52 52 51 54 55 46 49 51 58 62 61 69 61 63 54 74 47 46 49 45 59 75 60 43 44 46 46 47 40 47 49 51 60 64 57 49 47 46 45 43 45
51 52 50 53 50 49 54 53 57 62 63 62 60 53 54 68 52 90 54 61 59 64 62 69 59 52 52 48 38 40 44 50 52 46 48 56 71 59 45 47 48 49 43
51 50 50 50 47 48 52 55 63 63 59 61 57 49 55 57 49 58 58 67 61 58 50 58 53 48 39 39 40 46 43 39 41 51 41 45 65 74 66 54 45 43 49
50 49 51 48 45 46 46 54 56 56 59 55 54 50 42 51 49 64 58 59 55 55 69 57 52 52 52 37 37 35 43 43 41 47 45 36 47 63 72 67 56 52 47
50 49 50 47 44 40 43 46 51 54 53 53 51 47 46 45 47 67 64 55 57 57 50 45 58 54 43 47 34 34 43 44 39 49 52 52 47 44 50 61 65 63 53
50 47 45 46 44 41 38 42 47 50 51 50 51 49 46 44 47 59 62 53 62 48 48 59 46 44 51 42 42 41 40 37 40 36 47 45 47 52 42 40 49 54 59
47 46 44 42 42 42 37 40 41 44 47 50 49 49 45 44 45 46 60 74 44 42 48 48 57 57 51 50 50 44 41 36 45 45 42 44 43 52 54 44 39 43 47
46 45 41 41 41 41 40 38 43 43 45 45 44 47 43 43 42 44 58 50 42 47 56 64 53 53 55 48 53 42 46 43 44 43 40 48 44 38 45 41 43 51 46
42 44 39 39 37 40 40 40 39 38 39 41 39 40 41 41 42 47 54 54 41 42 52 53 52 56 64 46 49 48 47 42 41 40 47 50 40 52 56 36 48 43 45
38 40 39 37 34 34 37 38 38 37 38 35 37 37 35 40 41 44 57 56 45 65 53 48 47 63 48 44 54 49 48 44 43 53 41 39 40 39 35 33 37 37 51
37 37 37 32 33 32 35 36 36 35 34 35 35 35 36 38 39 41 50 45 44 41 66 51 43 49 57 42 50 61 58 59 50 46 42 48 37 42 36 36 38 35 42
36 34 36 32 32 30 31 36 34 32 32 31 33 36 40 36 36 38 42 41 37 42 60 53 46 51 45 48 42 49 54 56 62 62 56 52 48 48 45 54 48 44 42
33 34 33 29 28 27 28 32 32 31 30 33 36 35 34 42 36 37 38 39 35 37 49 52 49 41 46 51 51 47 45 47 53 57 57 56 53 53 56 44 58 58 52
29 33 32 32 27 28 27 26 27 25 28 31 35 41 41 38 38 34 36 34 38 37 48 46 46 43 42 45 47 48 51 52 54 53 54 54 55 57 55 55 50 52 57